Tracking 23612 objects as of 17-Sep-2021
HD Live streaming from Space Station
objects crossing your sky now
Track INSPIRATION-4

BEIDOU 1B

Track BEIDOU 1B now!
BEIDOU 1B is classified as:


NORAD ID: 26643
Int'l Code: 2000-082A
Perigee: 35,721.3 km
Apogee: 36,444.2 km
Inclination: 10.1 °
Period: 1,450.9 minutes
Semi major axis: 42453 km
RCS: 0.1238 m2 (medium)
Launch date: December 20, 2000
Source: People's Republic of China (PRC)
Launch site: Xichang Space Center, China (XSC)

Space-bsaed navigation and positioning system to improve accuracy of weapons and situational awareness of military forces.
aabbcc
Your satellite tracking list
Your tracking list is empty




NASA's NSSDC Master Catalog

Two Line Element Set (TLE):
1 26643U 00082A   21259.45404652  .00000050  00000-0  00000-0 0  9995
2 26643  10.1244  38.5625 0085133  45.9133 311.7103  0.99249647 34855
Source of the keplerian elements: AFSPC